Regional Weather Roundup
Issued by NWS

Home | Current Version | Previous Version | Graphics & Text | Print | Product List | Glossary On
Versions: 1 2 3 4 5 6 7 8 9 10 11 12 13 14 15 16 17 18 19 20 21 22 23 24 25 26 27 28 29 30 31 32 33 34 35 36 37 38 39 40 41 42 43 44 45 46 47 48 49 50
000
ASUS43 KOAX 082002
RWRNE

WEATHER ROUNDUP FOR NEBRASKA
NATIONAL WEATHER SERVICE OMAHA NE
200 PM CST MON FEB 08 2016

NOTES: SATELLITE DATA IS BEING USED TO AUGMENT CLOUD COVER ABOVE
       12000 FEET.
       "FAIR" INDICATES FEW OR NO CLOUDS BELOW 12,000 FEET WITH NO
       SIGNIFICANT WEATHER AND/OR OBSTRUCTIONS TO VISIBILITY.

  * THESE STATIONS DO NOT REPORT WEATHER SUCH AS RAIN...SNOW OR FOG.

NEZ001>004-019>022-054>056-082100-
NEBRASKA PANHANDLE

CITY           SKY/WX    TMP DP  RH WIND       PRES   REMARKS
SCOTTSBLUFF    CLOUDY    41  24  51 NW14      30.32F
ALLIANCE       PTSUNNY   34  16  47 NW18G25   30.29F WCI  23
CHADRON        CLOUDY    39  15  37 NW21      30.32F WCI  29
SIDNEY         CLOUDY    37  24  59 NW20      30.30F WCI  27
$$

NEZ057>060-069>072-079>082-082100-
SOUTHWEST NEBRASKA

CITY           SKY/WX    TMP DP  RH WIND       PRES   REMARKS
NORTH PLATTE   CLOUDY    36  13  38 NW22G31   30.26F WCI  25
IMPERIAL       CLOUDY    36  16  44 NW20      30.29F WCI  25
MCCOOK         CLOUDY    37  17  44 NW26      30.28F WCI  25
$$

NEZ005>010-023>029-035>040-094-082100-
NORTH CENTRAL NEBRASKA

CITY           SKY/WX    TMP DP  RH WIND       PRES   REMARKS
VALENTINE      CLOUDY    33  17  51 NW20G31   30.25F WCI  21
BROKEN BOW     SUNNY     36  15  42 N30G48    30.20F WCI  23
ORD            SUNNY     35  17  47 NW29G41   30.17F WCI  22
$$

NEZ041-046>049-061>064-073>077-083>087-082100-
SOUTH CENTRAL NEBRASKA

CITY           SKY/WX    TMP DP  RH WIND       PRES   REMARKS
GRAND ISLAND   SUNNY     34  18  52 NW25G43   30.17F WCI  21
HASTINGS       SUNNY     35  19  52 NW30G39   30.17F WCI  22
$$

NEZ011>018-030>034-042>045-082100-
NORTHEAST NEBRASKA

CITY           SKY/WX    TMP DP  RH WIND       PRES   REMARKS
NORFOLK        SUNNY     32  18  56 NW32G39   30.09F WCI  17
COLUMBUS *     SUNNY     32  12  43 NW28G35   30.12F WCI  18
TEKAMAH        CLOUDY    30  18  60 NW37G44   30.10F WCI  14
$$

NEZ050>053-065>068-078-088>093-082100-
SOUTHEAST NEBRASKA

CITY           SKY/WX    TMP DP  RH WIND       PRES   REMARKS
LINCOLN        SUNNY     33  20  58 NW22G36   30.13F WCI  21
OMAHA EPPLEY   CLOUDY    28  19  69 NW28G36   30.08F WCI  13
FALLS CITY     CLOUDY    32  17  54 NW26G44   30.08S WCI  18
$$

NEZ044-045-051>053-067-082100-
OMAHA AREA

CITY           SKY/WX    TMP DP  RH WIND       PRES   REMARKS
OMAHA EPPLEY   CLOUDY    28  19  69 NW28G36   30.08F WCI  13
OFFUTT AFB     CLOUDY    29  17  60 NW23G33   30.08S WCI  15
$$



USA.gov is the U.S. government's official web portal to all federal, state and local government web resources and services.